Showing default

FLOCK 4BE 36, 60486

Orbit data source: Space-Track

FLOCK 4BE 36, 60486 is a payload satellite owned by Planet (US) in SSO that was launched on Fri, 16 Aug 2024 UTC via an FALCON 9 launch vehicle from the Air Force Western Test Range (AFWTR). Payload-class satellites include a variety of spacecraft equipped with specific instruments for various scientific and technological missions. These include communications satellites like Starlink; space stations such as the ISS; scientific satellites like the Hubble; Earth observation satellites from companies like Planet Labs, Umbra, and HawkEye 360; GPS; miniature CubeSats for education and research; and military/defense satellites.

Loading next visibility...
Identifier
60486, 2024-149U
Orbit
SSO
Country
Flag of USUS
Related business
Manufacturer
Planet
Mission
Operational Commercial Imaging
Bus & Motor
CUBESAT 3U, Unknown motor
Mass
5.7 kg wet, 5.7 kg dry
Launch date (UTC)
2024-08-16 (1 year ago)
Launch vehicle
FALCON 9
Launch site
Air Force Western Test Range (AFWTR)
Object type
Payload
Rocket body
Debris
Shape & HBR
Box + 2 Pan, 1.0 m
Radar Cross Section
0.072 m², Medium (>0.1 m² and < 1m²)

Expand to show TLE details & history
Last TLE update: 21 hours ago

TLE from 21 hours ago
0 FLOCK 4BE 36
1 60486U 24149U   26034.23158320  .00021964  00000-0  59686-3 0  9992
2 60486  97.3845 117.4921 0004398  39.4048 320.7516 15.37570565 81736
Epoch: 2026-02-03T05:33Z
TLE epoch observation values (Epoch: 2026-02-03T05:33:28.788Z)
Latitude
-0.00002°
Longitude
-99.29333°
Altitude
454.084 km
Speed
7.641 km/s
True Right ascension
07h 49m 58s
True Declination
0° 00' 00"
Sunlit
Object was in full shadow at epoch
Visualization orbit readout
Latitude
Unknown
Longitude
Unknown
Altitude
Unknown
Speed
Unknown
Apparent Right ascension
Unknown
Apparent Declination
Unknown
Sunlit
N/A
Visualization observer readout
Local Sidereal Time
04:25:21
Azimuth
Unknown
Elevation
Unknown
Doppler factor
Unknown
Orbital elements
Apogee altitude
453.24 km
Perigee altitude
447.234 km
Semi-major axis
6,828.374 km
Eccentricity
0.00044
Inclination
97.3845°
RAAN
117.4921°
Arg. of periapsis
39.4048°
True anomaly
320.7197°
Mean anomaly
320.7516°
Eccentric anomaly
320.73565°
Mean motion
3.84651 °/min
Orbital period
93.59 mins
BSTAR
0.00059686
Loading maneuver chart data...
Computing Atmospheric mass density...
Loading historical data...
Loading historical data...
Loading historical data...
Loading historical data...
Loading historical data...
Loading historical data...
Loading historical data...

Documentation

Showing up to 5 results
|